Location: Unspecified
(37.0352°N, 0.0000°E)
Time: 02:49:19
(UTC+00:00)

ARIANE 6 FM1 Upper Stage - Visible Passes

Search period start: 04 April 2026 00:00
Search period end: 14 April 2026 00:00
Orbit: 524 x 605 km, 62.0° (Epoch: 29 March)

Date Brightness Start Highest point End Pass type
(mag) Time Alt. Az. Time Alt. Az. Time Alt. Az.
5 Apr 5.7 04:21:29 10° NNE 04:23:21 13° NE 04:25:13 10° ENE visible
6 Apr 5.5 04:20:26 10° N 04:23:11 18° NE 04:25:56 10° E visible
6 Apr 3.5 19:55:19 10° S 19:57:59 31° SSE 19:57:59 31° SSE visible
7 Apr 4.9 04:19:39 10° N 04:22:58 25° NE 04:26:16 10° ESE visible
7 Apr 2.5 19:54:41 10° SSW 19:58:50 63° ESE 20:02:53 10° NE visible
7 Apr 5.6 21:35:51 10° WNW 21:38:09 14° NW 21:40:26 10° N visible
8 Apr 4.2 04:19:01 10° NNW 04:22:42 36° NE 04:26:23 10° ESE visible
8 Apr 2.6 19:54:15 10° SW 19:58:26 84° WNW 20:02:32 10° NNE visible
8 Apr 6.0 21:37:15 10° NW 21:38:01 10° NW 21:38:46 10° NNW visible
9 Apr 3.3 04:18:29 10° NNW 04:22:23 55° NE 04:26:17 10° SE visible
9 Apr 3.4 19:53:59 10° SW 19:58:05 54° NW 20:02:06 10° NNE visible
10 Apr 6.0 02:42:06 10° NNE 02:42:27 10° NE 02:42:48 10° NE visible
10 Apr 2.5 04:18:03 10° NNW 04:22:01 87° ENE 04:25:59 10° SE visible
10 Apr 4.3 19:53:54 10° WSW 19:57:46 36° NW 20:01:34 10° NNE visible
11 Apr 5.7 02:40:09 10° N 02:42:18 14° NE 02:44:27 10° ENE visible
11 Apr 2.5 04:17:43 10° NW 04:21:36 58° WSW 04:25:31 10° SSE visible
11 Apr 5.0 19:54:00 10° WSW 19:57:28 25° NW 20:00:54 10° N visible
12 Apr 5.2 02:39:10 10° N 02:42:05 19° NE 02:45:01 10° E visible
12 Apr 3.0 04:17:31 10° NW 04:21:10 36° WSW 04:24:49 10° S visible
12 Apr 5.6 19:54:19 10° W 19:57:13 18° NW 20:00:06 10° N visible
13 Apr 5.1 02:44:18 15° E 02:44:18 15° E 02:45:15 10° ESE visible
13 Apr 3.6 04:20:44 24° WSW 04:20:44 24° WSW 04:23:53 10° S visible
13 Apr 5.8 19:54:58 10° WNW 19:57:01 13° NW 19:59:02 10° NNW visible
